{"data":{"norad_id":62902,"epoch":"2026-05-24T17:29:19.419072Z","epoch_age_seconds":88580,"freshness":"FRESH","line1":"1 62902U 25026A   26144.72869698  .00001217  00000+0  10922-3 0  9993","line2":"2 62902  81.9948  98.4316 0011227 127.9003 232.3234 14.94925952 70710","mean_motion":14.94925952,"eccentricity":0.0011227,"inclination_deg":81.9948,"raan_deg":98.4316,"arg_perigee_deg":127.9003,"mean_anomaly_deg":232.3234,"bstar":0.00010922,"rev_number":7071,"period_min":96.325841294914,"perigee_km":574.78777626697,"apogee_km":590.4174209617,"semimajor_km":6960.7395986143,"source":"CELESTRAK","updated_at":"2026-05-25T13:38:03.354461Z"}}